Weather History for KPAE - September, 2011

Change the Weather History Date:

Saturday, September 3, 2011

  Actual Average Record
Temperature  
Mean Temperature 62 °F -  
Max Temperature 73 °F 72 °F 86 °F (1988)
Min Temperature 51 °F 51 °F 41 °F (1956)
Degree Days  
Heating Degree Days 3    
Growing Degree Days 12 (Base 50)    
Moisture  
Dew Point 49 °F    
Average Humidity 67    
Maximum Humidity 89    
Minimum Humidity 42    
Precipitation  
Precipitation 0.00 in - - ()
Sea Level Pressure  
Sea Level Pressure 30.11 in    
Wind  
Wind Speed 3 mph (North)    
Max Wind Speed 9 mph    
Max Gust Speed -    
Visibility 10 miles    
Events      
Averages and records for this station are not official NWS values.
T = Trace of Precipitation, MM = Missing Value Source: NWS Daily Summary

Daily Weather History Graph

Daily Weather History Graph

Search for Another Location

Airport or City:

Trip Planner

Search our weather history database for the weather conditions in past years. The results will help you decide how hot, cold, wet, or windy it might be!

Date:

Astronomy

Sep. 03, 2011 Rise Set
Actual Time 6:29 AM PDT 7:46 PM PDT
Civil Twilight 5:57 AM PDT 8:18 PM PDT
Nautical Twilight 5:19 AM PDT 8:56 PM PDT
Astronomical Twilight 4:37 AM PDT 9:37 PM PDT
Moon 1:53 PM PDT (9/3) 10:38 PM PDT (9/3)
Length of Visible Light 14h 20m
Length of Day
13h 16m
Waxing Crescent, 39% of the Moon is Illuminated
Sep 3
Waxing Crescent
Sep 4
First Quarter
Sep 12
Full
Sep 20
Last Quarter
Sep 27
New

Hourly Weather History & Observations

Time (PDT) Temp. Dew Point Humidity Pressure Visibility Wind Dir Wind Speed Gust Speed Precip Events Conditions
12:53 AM 53.1 °F 48.0 °F 83% 30.22 in 10.0 mi Calm Calm - N/A   Clear
1:53 AM 53.1 °F 46.9 °F 80% 30.22 in 10.0 mi Calm Calm - N/A   Clear
2:53 AM 52.0 °F 48.0 °F 86% 30.21 in 10.0 mi Calm Calm - N/A   Clear
3:53 AM 51.8 °F 48.2 °F 88% 30.21 in 10.0 mi North 4.6 mph - N/A   Clear
4:53 AM 51.8 °F 48.2 °F 88% 30.20 in 10.0 mi North 4.6 mph - N/A   Clear
5:53 AM 52.0 °F 48.9 °F 89% 30.19 in 10.0 mi Calm Calm - N/A   Clear
6:53 AM 52.0 °F 48.9 °F 89% 30.19 in 9.0 mi North 3.5 mph - N/A   Clear
7:53 AM 55.9 °F 50.0 °F 80% 30.19 in 10.0 mi NNE 4.6 mph - N/A   Clear
8:53 AM 55.9 °F 48.9 °F 77% 30.19 in 10.0 mi North 4.6 mph - N/A   Clear
9:53 AM 59.0 °F 50.0 °F 72% 30.19 in 10.0 mi Variable 4.6 mph - N/A   Clear
10:53 AM 61.0 °F 48.9 °F 64% 30.17 in 10.0 mi North 5.8 mph - N/A   Clear
11:53 AM 64.9 °F 48.9 °F 56% 30.16 in 10.0 mi NNW 6.9 mph - N/A   Clear
12:53 PM 69.1 °F 48.9 °F 49% 30.13 in 10.0 mi North 5.8 mph - N/A   Clear
1:53 PM 70.0 °F 48.9 °F 47% 30.11 in 10.0 mi Variable 5.8 mph - N/A   Clear
2:53 PM 72.0 °F 48.9 °F 44% 30.09 in 10.0 mi North 6.9 mph - N/A   Clear
3:53 PM 72.0 °F 48.9 °F 44% 30.06 in 10.0 mi NNW 9.2 mph - N/A   Clear
4:53 PM 73.0 °F 48.9 °F 42% 30.04 in 10.0 mi North 4.6 mph - N/A   Clear
5:53 PM 71.1 °F 51.1 °F 49% 30.02 in 10.0 mi North 6.9 mph - N/A   Clear
6:53 PM 69.1 °F 50.0 °F 51% 30.01 in 10.0 mi North 3.5 mph - N/A   Clear
7:53 PM 64.9 °F 50.0 °F 58% 29.99 in 10.0 mi North 3.5 mph - N/A   Clear
8:53 PM 63.0 °F 50.0 °F 63% 30.00 in 10.0 mi Calm Calm - N/A   Clear
9:53 PM 61.0 °F 50.0 °F 67% 29.99 in 10.0 mi North 3.5 mph - N/A   Clear
10:53 PM 61.0 °F 48.9 °F 64% 29.99 in 10.0 mi Calm Calm - N/A   Clear
11:53 PM 59.0 °F 48.9 °F 69% 29.98 in 10.0 mi Calm Calm - N/A   Clear